TimeAST,TemperatureF,Dew PointF,Humidity,Sea Level PressureIn,VisibilityMPH,Wind Direction,Wind SpeedMPH,Gust SpeedMPH,PrecipitationIn,Events,Conditions,WindDirDegrees,DateUTC
12:00 AM,80.6,75.2,84,29.92,-9999.0,East,12.7,-,N/A,,Unknown,100,2012-12-26 04:00:00
1:00 AM,80.6,75.2,84,29.89,-9999.0,East,9.2,-,N/A,,Unknown,90,2012-12-26 05:00:00
2:00 AM,80.6,75.2,84,29.89,-9999.0,East,10.4,-,N/A,,Unknown,80,2012-12-26 06:00:00
4:00 AM,80.6,75.2,84,29.86,-9999.0,East,12.7,-,N/A,,Unknown,90,2012-12-26 08:00:00
5:00 AM,80,75,80,,,East,11.5,,,,Clear,90,2012-12-26 09:00:00
5:00 AM,80.6,75.2,84,29.89,-9999.0,East,11.5,-,N/A,,Unknown,90,2012-12-26 09:00:00
6:00 AM,80.6,75.2,84,29.89,-9999.0,East,11.5,-,N/A,,Unknown,100,2012-12-26 10:00:00
8:00 AM,82.4,75.2,79,29.92,6.2,East,13.8,-,N/A,,Scattered Clouds,90,2012-12-26 12:00:00
9:00 AM,84.2,77.0,79,29.95,6.2,East,17.3,-,N/A,,Scattered Clouds,100,2012-12-26 13:00:00
10:00 AM,84.2,75.2,74,29.95,6.2,East,21.9,-,N/A,,Partly Cloudy,100,2012-12-26 14:00:00
11:00 AM,86.0,73.4,66,29.95,6.2,East,20.7,-,N/A,,Partly Cloudy,100,2012-12-26 15:00:00
12:00 PM,86.0,75.2,70,29.95,6.2,East,20.7,-,N/A,,Scattered Clouds,100,2012-12-26 16:00:00
1:00 PM,86.0,75.2,70,29.92,6.2,East,21.9,-,N/A,,Partly Cloudy,100,2012-12-26 17:00:00
2:00 PM,88,82,77,29.90,22,East,19.6,,,,Mostly Cloudy,100,2012-12-26 18:00:00
2:00 PM,86.0,75.2,70,29.89,6.2,East,19.6,-,N/A,,Mostly Cloudy,100,2012-12-26 18:00:00
3:00 PM,86.0,75.2,70,29.86,-9999.0,East,19.6,-,N/A,,Unknown,100,2012-12-26 19:00:00
4:00 PM,86.0,75.2,70,29.86,-9999.0,East,21.9,-,N/A,,Unknown,100,2012-12-26 20:00:00
5:00 PM,84,74,65,,6,East,19.6,,,,Clear,90,2012-12-26 21:00:00
5:00 PM,84.2,73.4,70,29.86,-9999.0,East,19.6,-,N/A,,Unknown,90,2012-12-26 21:00:00
6:00 PM,82.4,75.2,79,29.86,6.2,East,18.4,-,N/A,,Partly Cloudy,90,2012-12-26 22:00:00
7:00 PM,80.6,75.2,84,29.86,-9999.0,East,16.1,-,N/A,,Unknown,90,2012-12-26 23:00:00
8:00 PM,81,75,76,,6,East,13.8,,,,Clear,90,2012-12-27 00:00:00
8:00 PM,80.6,75.2,84,29.86,-9999.0,East,13.8,-,N/A,,Unknown,90,2012-12-27 00:00:00
9:00 PM,80.6,73.4,79,29.89,-9999.0,East,17.3,-,N/A,,Unknown,90,2012-12-27 01:00:00
10:00 PM,80.6,75.2,84,29.89,-9999.0,East,13.8,-,N/A,,Unknown,90,2012-12-27 02:00:00